Regional Weather Roundup
Issued by NWS

Home | Current Version | Previous Version | Text Only | Print | Product List | Glossary Off
Versions: 1 2 3 4 5 6 7 8 9 10 11 12 13 14 15 16 17 18 19 20 21 22 23 24 25 26 27 28 29 30 31 32 33 34 35 36 37 38 39 40 41 42 43 44 45 46 47 48 49 50

000
ASUS43 KLSX 011107
RWRMO

WEATHER SUMMARY FOR MISSOURI
NATIONAL WEATHER SERVICE SPRINGFIELD MO
600 AM CDT FRI AUG 01 2014

NOTE: "FAIR" INDICATES FEW OR NO CLOUDS BELOW 12,000 FEET WITH NO
       SIGNIFICANT WEATHER AND/OR OBSTRUCTIONS TO VISIBILITY.
       CURRENT SKY AND/OR WEATHER CONDITIONS ARE NOT AVAILABLE FOR
       CHILLICOTHE AND FARMINGTON.

MOZ001>031-035>038-043-044-053-054-011200-
...NORTHERN AND WESTERN MISSOURI...

CITY           SKY/WX    TMP DP  RH WIND       PRES   REMARKS
KANSAS CTY INT CLOUDY    68  61  78 CALM      30.08S
KANSAS C DTWN  CLOUDY    70  62  76 CALM      30.06S
LEE`S SUMMIT   PTCLDY    65  59  81 CALM      30.08S
ST JOSEPH      LGT RAIN  65  63  93 N6        30.09R
CHILLICOTHE      N/A     66  62  87 CALM      30.09S
KIRKSVILLE     PTCLDY    62  59  90 W3        30.08S

$$
MOZ066>068-077>081-088>096-101>105-011200-
...SOUTHWEST MISSOURI...

CITY           SKY/WX    TMP DP  RH WIND       PRES   REMARKS
SPRINGFIELD    FOG       63  62  97 S3        30.09R VSB 1/4
JOPLIN         FOG       64  64 100 CALM      30.09R VSB 3/4

$$
MOZ032>034-039>042-045>050-055>058-069>072-011200-
...CENTRAL MISSOURI...

CITY           SKY/WX    TMP DP  RH WIND       PRES   REMARKS
COLUMBIA       PTCLDY    62  60  93 S5        30.07S
JEFFERSON CITY PTCLDY    62  59  90 SE3       30.07S
ROLLA          CLEAR     63  61  93 S3        30.08R
SEDALIA        PTCLDY    62  57  83 S3        30.08R
WHITEMAN AFB   MOCLDY    62  53  73 MISG      30.06S
OSAGE BEACH    CLEAR     61  57  88 CALM      30.08S

$$
MOZ051-052-059>065-011200-
...EAST CENTRAL MISSOURI...

CITY           SKY/WX    TMP DP  RH WIND       PRES   REMARKS
ST LOUIS INTL  PTCLDY    69  63  81 CALM      30.08S
SPIRIT OF STL  CLEAR     60  59  96 CALM      30.07S FOG
ST CHARLES     PTCLDY    62  60  93 CALM      30.07R

$$
MOZ072>076-082>087-097>100-106>115-011200-
...SOUTH CENTRAL AND SOUTHEAST MISSOURI...

CITY           SKY/WX    TMP DP  RH WIND       PRES   REMARKS
CAPE GIRARDEAU MOCLDY    62  61  96 SW3       30.08S FOG
FARMINGTON     CLOUDY    64  63  94 CALM      30.12R VSB 1/2
POPLAR BLUFF   CLOUDY    63  60  90 CALM      30.07S FOG
WEST PLAINS    FOG       58  57  97 CALM      30.11R VSB 1/4

$$


USA.gov is the U.S. government's official web portal to all federal, state and local government web resources and services.